| time (UTC) | temp C | wind direction | speed KPH | gust KPH | rain 1hr cm | rain 24hr cm | rain mn cm | humidity % | barometer mb |
| 20260901111604 | 27 | 67 | 3.2 | 9.7 | 0.00 | 0.00 | 0.00 | 49 | 1014.3 |
| 20260901110049 | 27 | 81 | 1.6 | 6.4 | 0.00 | 0.00 | 0.00 | 47 | 1014.4 |
| 20260901104549 | 26 | 115 | 3.2 | 8.0 | 0.00 | 0.00 | 0.00 | 50 | 1014.5 |
| 20260901103044 | 26 | 104 | 3.2 | 14.5 | 0.00 | 0.00 | 0.00 | 52 | 1014.5 |
| 20260901101541 | 26 | 191 | 1.6 | 11.3 | 0.00 | 0.00 | 0.00 | 55 | 1014.7 |
| 20260901100046 | 25 | 82 | 6.4 | 11.3 | 0.00 | 0.00 | 0.00 | 57 | 1014.8 |
| 20260901094538 | 25 | 127 | 1.6 | 9.7 | 0.00 | 0.00 | 0.00 | 57 | 1014.8 |
| 20260901093036 | 24 | 155 | 1.6 | 11.3 | 0.00 | 0.00 | 0.00 | 59 | 1014.8 |
| 20260901091534 | 23 | 61 | 1.6 | 11.3 | 0.00 | 0.00 | 0.00 | 60 | 1014.9 |
| 20260901090034 | 23 | 95 | 1.6 | 6.4 | 0.00 | 0.00 | 0.00 | 59 | 1015.0 |
| 20260901084531 | 23 | 158 | 1.6 | 6.4 | 0.00 | 0.00 | 0.00 | 58 | 1015.0 |
| 20260901083031 | 23 | 147 | 1.6 | 6.4 | 0.00 | 0.00 | 0.00 | 60 | 1015.0 |
| 20260901081529 | 22 | 121 | 1.6 | 8.0 | 0.00 | 0.00 | 0.00 | 61 | 1015.0 |
| 20260901080028 | 22 | 146 | 0.0 | 4.8 | 0.00 | 0.00 | 0.00 | 58 | 1014.9 |
| 20260901074526 | 21 | 114 | 3.2 | 6.4 | 0.00 | 0.00 | 0.00 | 55 | 1014.9 |
| 20260901073028 | 21 | 115 | 1.6 | 4.8 | 0.00 | 0.00 | 0.00 | 55 | 1014.9 |
| 20260901071523 | 21 | 106 | 0.0 | 1.6 | 0.00 | 0.00 | 0.00 | 56 | 1014.9 |
| 20260901070022 | 20 | 98 | 0.0 | 1.6 | 0.00 | 0.00 | 0.00 | 58 | 1014.7 |
| 20260901064525 | 18 | 53 | 0.0 | 1.6 | 0.00 | 0.00 | 0.00 | 61 | 1014.7 |
| 20260901063030 | 18 | 158 | 0.0 | 0.0 | 0.00 | 0.00 | 0.00 | 61 | 1014.7 |
| 20260901061519 | -17 | 0.0 | 0.0 | 0.00 | 0.00 | 0.00 | 1014.7 | ||
| 20260901060011 | -17 | 0.0 | 0.0 | 0.00 | 0.00 | 0.00 | 1014.6 | ||
| 20260901054506 | -17 | 0.0 | 0.0 | 0.00 | 0.00 | 0.00 | 1014.5 | ||
| 20260901053001 | -17 | 0.0 | 0.0 | 0.00 | 0.00 | 0.00 | 1014.4 | ||
| 20260901051557 | -17 | 0.0 | 0.0 | 0.00 | 0.00 | 0.00 | 1014.2 | ||
| 20260901050054 | 18 | 214 | 0.0 | 1.6 | 0.00 | 0.00 | 0.00 | 60 | 1014.3 |
| 20260901044559 | 18 | 85 | 0.0 | 0.0 | 0.00 | 0.00 | 0.00 | 60 | 1014.0 |
| 20260901043049 | 18 | 85 | 0.0 | 0.0 | 0.00 | 0.00 | 0.00 | 57 | 1014.1 |
| 20260901041544 | 19 | 85 | 0.0 | 0.0 | 0.00 | 0.00 | 0.00 | 56 | 1013.9 |
| 20260901040047 | 20 | 84 | 0.0 | 3.2 | 0.00 | 0.00 | 0.00 | 54 | 1013.9 |
| 20260901034542 | 20 | 109 | 0.0 | 1.6 | 0.00 | 0.00 | 0.00 | 53 | 1013.9 |
| 20260901033041 | 20 | 109 | 0.0 | 1.6 | 0.00 | 0.00 | 0.00 | 53 | 1013.8 |
| 20260901031540 | 20 | 109 | 0.0 | 1.6 | 0.00 | 0.00 | 0.00 | 53 | 1013.7 |
| 20260901030040 | 20 | 109 | 0.0 | 1.6 | 0.00 | 0.00 | 0.00 | 53 | 1013.7 |
| 20260901024637 | 20 | 108 | 0.0 | 4.8 | 0.00 | 0.00 | 0.00 | 51 | 1013.6 |
| 20260901023041 | 20 | 98 | 0.0 | 3.2 | 0.00 | 0.00 | 0.00 | 50 | 1013.7 |
| 20260901021541 | 21 | 82 | 0.0 | 6.4 | 0.00 | 0.00 | 0.00 | 49 | 1013.8 |
| 20260901020041 | 21 | 96 | 0.0 | 4.8 | 0.00 | 0.00 | 0.00 | 48 | 1013.7 |
| 20260901014531 | 21 | 84 | 3.2 | 4.8 | 0.00 | 0.00 | 0.00 | 47 | 1013.7 |
| 20260901013031 | 21 | 109 | 0.0 | 3.2 | 0.00 | 0.00 | 0.00 | 46 | 1013.6 |
| 20260901011531 | 21 | 91 | 0.0 | 3.2 | 0.00 | 0.00 | 0.00 | 45 | 1013.8 |
| 20260901010030 | 21 | 52 | 0.0 | 1.6 | 0.00 | 0.00 | 0.00 | 44 | 1013.8 |
| 20260901004529 | 21 | 29 | 0.0 | 3.2 | 0.00 | 0.00 | 0.00 | 43 | 1013.9 |
| 20260901003029 | 22 | 130 | 0.0 | 12.9 | 0.00 | 0.00 | 0.00 | 42 | 1013.9 |
| 20260901001526 | 21 | 8 | 0.0 | 3.2 | 0.00 | 0.00 | 0.00 | 43 | 1013.8 |
| 20260901000024 | 21 | 141 | 0.0 | 1.6 | 0.00 | 0.00 | 0.00 | 44 | 1013.7 |
| 20260831234624 | 21 | 141 | 0.0 | 0.0 | 0.00 | 0.00 | 0.00 | 45 | 1013.6 |
| 20260831233020 | 20 | 141 | 0.0 | 0.0 | 0.00 | 0.00 | 0.00 | 42 | 1013.5 |
| 20260831231517 | 21 | 141 | 0.0 | 0.0 | 0.00 | 0.00 | 0.00 | 42 | 1013.5 |
| 20260831230022 | 21 | 141 | 0.0 | 0.0 | 0.00 | 0.00 | 0.00 | 42 | 1013.5 |
| 20260831224513 | 22 | 141 | 0.0 | 0.0 | 0.00 | 0.00 | 0.00 | 41 | 1013.3 |
| 20260831223010 | 22 | 159 | 0.0 | 0.0 | 0.00 | 0.00 | 0.00 | 42 | 1013.3 |
| 20260831221506 | 23 | 249 | 0.0 | 0.0 | 0.00 | 0.00 | 0.00 | 40 | 1013.2 |
| 20260831220007 | 23 | 249 | 0.0 | 0.0 | 0.00 | 0.00 | 0.00 | 38 | 1013.2 |
| 20260831214503 | 24 | 249 | 0.0 | 0.0 | 0.00 | 0.00 | 0.00 | 37 | 1013.2 |
| 20260831213004 | 25 | 293 | 0.0 | 1.6 | 0.00 | 0.00 | 0.00 | 36 | 1013.2 |
| 20260831211502 | 25 | 297 | 1.6 | 3.2 | 0.00 | 0.00 | 0.00 | 34 | 1013.1 |
| 20260831210001 | 25 | 302 | 0.0 | 3.2 | 0.00 | 0.00 | 0.00 | 35 | 1013.1 |
| 20260831204601 | 26 | 276 | 0.0 | 3.2 | 0.00 | 0.00 | 0.00 | 36 | 1013.0 |
| 20260831203111 | 26 | 12 | 0.0 | 4.8 | 0.00 | 0.00 | 0.00 | 36 | 1012.8 |
| 20260831201600 | 26 | 246 | 0.0 | 0.0 | 0.00 | 0.00 | 0.00 | 36 | 1012.7 |
| 20260831200059 | 26 | 233 | 0.0 | 0.0 | 0.00 | 0.00 | 0.00 | 35 | 1012.4 |
| 20260831194636 | 27 | 233 | 0.0 | 0.0 | 0.00 | 0.00 | 0.00 | 33 | 1012.2 |
| 20260831193100 | 27 | 233 | 0.0 | 0.0 | 0.00 | 0.00 | 0.00 | 32 | 1012.0 |
| 20260831191600 | 28 | 265 | 0.0 | 0.0 | 0.00 | 0.00 | 0.00 | 30 | 1011.9 |
| 20260831190113 | 28 | 283 | 0.0 | 1.6 | 0.00 | 0.00 | 0.00 | 30 | 1012.0 |
| 20260831184605 | 30 | 274 | 1.6 | 6.4 | 0.00 | 0.00 | 0.00 | 28 | 1011.9 |
| 20260831183100 | 30 | 275 | 1.6 | 9.7 | 0.00 | 0.00 | 0.00 | 27 | 1011.9 |
| 20260831181559 | 31 | 307 | 1.6 | 11.3 | 0.00 | 0.00 | 0.00 | 26 | 1011.8 |
| 20260831180051 | 31 | 275 | 1.6 | 9.7 | 0.00 | 0.00 | 0.00 | 27 | 1011.9 |
| 20260831174551 | 32 | 290 | 1.6 | 12.9 | 0.00 | 0.00 | 0.00 | 26 | 1012.0 |
| 20260831173053 | 32 | 277 | 6.4 | 16.1 | 0.00 | 0.00 | 0.00 | 25 | 1012.0 |
| 20260831171549 | 32 | 251 | 4.8 | 16.1 | 0.00 | 0.00 | 0.00 | 25 | 1012.0 |
| 20260831170049 | 32 | 295 | 4.8 | 14.5 | 0.00 | 0.00 | 0.00 | 23 | 1012.1 |
| 20260831164555 | 32 | 302 | 3.2 | 14.5 | 0.00 | 0.00 | 0.00 | 24 | 1012.0 |
| 20260831163049 | 32 | 160 | 1.6 | 9.7 | 0.00 | 0.00 | 0.00 | 26 | 1012.1 |
| 20260831161545 | 32 | 321 | 3.2 | 6.4 | 0.00 | 0.00 | 0.00 | 26 | 1012.2 |
| 20260831160042 | 32 | 54 | 1.6 | 9.7 | 0.00 | 0.00 | 0.00 | 27 | 1012.4 |
| 20260831154548 | 32 | 68 | 3.2 | 16.1 | 0.00 | 0.00 | 0.00 | 26 | 1012.5 |
| 20260831153037 | 32 | 300 | 3.2 | 12.9 | 0.00 | 0.00 | 0.00 | 27 | 1012.6 |
| 20260831151535 | 32 | 255 | 1.6 | 12.9 | 0.00 | 0.00 | 0.00 | 27 | 1012.7 |
| 20260831150034 | 32 | 261 | 4.8 | 14.5 | 0.00 | 0.00 | 0.00 | 27 | 1012.8 |
| 20260831144536 | 31 | 288 | 3.2 | 19.3 | 0.00 | 0.00 | 0.00 | 27 | 1012.8 |
| 20260831143134 | 31 | 325 | 3.2 | 9.7 | 0.00 | 0.00 | 0.00 | 28 | 1012.8 |
| 20260831141545 | 31 | 286 | 4.8 | 11.3 | 0.00 | 0.00 | 0.00 | 27 | 1013.0 |
| 20260831140038 | 31 | 295 | 3.2 | 16.1 | 0.00 | 0.00 | 0.00 | 27 | 1013.1 |
| 20260831134534 | 31 | 220 | 1.6 | 6.4 | 0.00 | 0.00 | 0.00 | 30 | 1013.3 |
| 20260831133031 | 31 | 49 | 1.6 | 14.5 | 0.00 | 0.00 | 0.00 | 29 | 1013.4 |
| 20260831131520 | 30 | 261 | 3.2 | 12.9 | 0.00 | 0.00 | 0.00 | 30 | 1013.5 |
| 20260831130019 | 30 | 300 | 6.4 | 16.1 | 0.00 | 0.00 | 0.00 | 30 | 1013.6 |
| 20260831124520 | 30 | 323 | 3.2 | 14.5 | 0.00 | 0.00 | 0.00 | 30 | 1013.9 |
| 20260831123020 | 30 | 327 | 4.8 | 16.1 | 0.00 | 0.00 | 0.00 | 31 | 1014.0 |
| 20260831121515 | 29 | 154 | 1.6 | 8.0 | 0.00 | 0.00 | 0.00 | 32 | 1014.1 |
| 20260831120013 | 29 | 300 | 3.2 | 8.0 | 0.00 | 0.00 | 0.00 | 33 | 1014.3 |
| 20260831114512 | 29 | 245 | 8.0 | 16.1 | 0.00 | 0.00 | 0.00 | 34 | 1014.4 |